Location: Zihuatanejo
(17.6330°N, 101.5500°W)
Time: 01:34:27
(UTC-05:00)

Tiangong 2 - Pass Details

Date: 28 March 2019
Orbit: 378 x 390 km, 42.8° (Epoch: 23 April)

Event Time Altitude Azimuth Distance (km) Brightness Sun altitude
Rises 21:09:47 0° 256° (WSW) 2,235 6.2 -17.6°
Reaches altitude 10° 21:12:14 10° 275° (W) 1,382 5.1 -18.2°
Maximum altitude 21:14:32 19° 323° (NW) 982 3.7 -18.7°
Drops below altitude 10° 21:16:49 10° 11° (N) 1,380 3.9 -19.3°
Enters shadow 21:16:52 10° 11° (NNE) 1,394 3.9 -19.3°
